Location: Katowice
(50.2611°N, 19.0242°E)
Time: 21:55:12
(UTC+02:00)

Tiros 1 - Pass Details

Date: 27 August 2019
Orbit: 630 x 664 km, 48.4° (Epoch: 14 October)

Event Time Altitude Azimuth Distance (km) Brightness Sun altitude
Exits shadow 01:56:34 17° 98° (E) 1,592 9.2 -27.6°
Drops below altitude 10° 01:57:42 10° 96° (E) 2,025 9.8 -27.5°
Sets 02:00:03 0° 94° (E) 2,940 10.7 -27.4°
